Location: Newark
(49.8348°N, 24.0280°E)
Time: 21:07:26
(UTC+00:00)

Explorer 7 - Pass Details

Date: 21 January 2020
Orbit: 485 x 679 km, 50.3° (Epoch: 23 February)

Event Time Altitude Azimuth Distance (km) Brightness Sun altitude
Rises 03:15:08 0° 284° (WNW) 2,589 - -27.9°
Reaches altitude 10° 03:17:17 10° 281° (W) 1,723 - -27.6°
Maximum altitude 03:21:08 62° 201° (SSW) 596 - -27.0°
Exits shadow 03:22:36 35° 135° (SE) 865 8.1 -26.7°
Drops below altitude 10° 03:25:12 10° 120° (ESE) 1,815 10.2 -26.3°
Sets 03:27:31 0° 117° (ESE) 2,742 11.4 -25.9°
